TimeMDT,TemperatureF,Dew PointF,Humidity,Sea Level PressureIn,VisibilityMPH,Wind Direction,Wind SpeedMPH,Gust SpeedMPH,PrecipitationIn,Events,Conditions,WindDirDegrees,DateUTC
12:55 AM,51.1,23.0,33,29.73,10.0,Calm,Calm,-,N/A,,Clear,0,2013-09-21 06:55:00
1:55 AM,48.9,25.0,39,29.71,10.0,ESE,3.5,-,N/A,,Clear,120,2013-09-21 07:55:00
2:55 AM,46.9,24.1,41,29.70,10.0,Calm,Calm,-,N/A,,Clear,0,2013-09-21 08:55:00
3:55 AM,46.9,25.0,42,29.68,10.0,Calm,Calm,-,N/A,,Clear,0,2013-09-21 09:55:00
4:55 AM,46.9,24.1,41,29.68,10.0,SSE,3.5,-,N/A,,Clear,150,2013-09-21 10:55:00
5:55 AM,41.0,23.0,49,29.70,10.0,Calm,Calm,-,N/A,,Clear,0,2013-09-21 11:55:00
6:55 AM,43.0,25.0,49,29.71,10.0,South,3.5,-,N/A,,Clear,190,2013-09-21 12:55:00
7:55 AM,39.9,26.1,58,29.73,10.0,WNW,5.8,-,N/A,,Clear,300,2013-09-21 13:55:00
8:55 AM,48.0,26.1,42,29.70,10.0,Calm,Calm,-,N/A,,Clear,0,2013-09-21 14:55:00
9:55 AM,53.1,26.1,35,29.68,10.0,Calm,Calm,-,N/A,,Clear,0,2013-09-21 15:55:00
10:55 AM,57.9,26.1,30,29.68,10.0,Calm,Calm,-,N/A,,Clear,0,2013-09-21 16:55:00
11:55 AM,63.0,27.0,26,29.64,10.0,Calm,Calm,-,N/A,,Clear,0,2013-09-21 17:55:00
12:55 PM,68.0,33.1,27,29.60,10.0,Calm,Calm,-,N/A,,Clear,0,2013-09-21 18:55:00
1:55 PM,73.9,28.9,19,29.55,10.0,ESE,6.9,-,N/A,,Clear,110,2013-09-21 19:55:00
2:55 PM,75.9,21.0,13,29.52,10.0,SW,11.5,19.6,N/A,,Clear,220,2013-09-21 20:55:00
3:55 PM,75.9,19.0,12,29.49,10.0,South,13.8,24.2,N/A,,Clear,180,2013-09-21 21:55:00
4:55 PM,73.9,19.9,13,29.50,10.0,South,15.0,26.5,N/A,,Clear,190,2013-09-21 22:55:00
5:55 PM,73.0,19.9,14,29.53,10.0,South,15.0,21.9,N/A,,Clear,190,2013-09-21 23:55:00
6:55 PM,71.1,21.9,16,29.51,10.0,SSW,6.9,-,N/A,,Clear,200,2013-09-22 00:55:00
7:55 PM,63.0,28.9,28,29.52,10.0,Calm,Calm,-,N/A,,Partly Cloudy,0,2013-09-22 01:55:00
8:55 PM,61.0,25.0,25,29.51,10.0,WNW,5.8,-,N/A,,Mostly Cloudy,290,2013-09-22 02:55:00
9:55 PM,59.0,33.1,38,29.50,10.0,ENE,4.6,-,N/A,,Scattered Clouds,60,2013-09-22 03:55:00
10:55 PM,62.1,30.0,30,29.47,10.0,North,9.2,-,N/A,,Overcast,360,2013-09-22 04:55:00
11:55 PM,62.1,30.9,31,29.51,10.0,East,9.2,-,0.00,,Overcast,100,2013-09-22 05:55:00